[[{"header":{"parameterUnit":"m.s-1","parameterCategory":2,"la1":30.2991,"la2":30.254,"lo1":-89.0895,"lo2":-89.0444,"dy":0.0017,"dx":0.0017,"nx":28,"ny":28,"refTime":"2024-05-30T09:00:00:Z","depth":"0","parameterNumber":2,"parameterNumberName":"U-component_of_CURRENTS"},"data":[0,0,0,0,0,0,0,0,0,0,0,0,0,0,0,0,0,0,0,0,0,0,0,0,0,0,0,0,0,0,0,0,0,0,0,0,0,0,0,0,0,0,0,0,0,0,0,0,0,0,0,0,0,0,0,0,0,0,-0.2157,-0.2157,0,-0.2189,-0.2189,-0.2189,-0.2175,-0.2174,-0.2173,-0.2173,-0.2152,-0.2152,-0.2152,0,0,0,0,0,0,0,0,0,0,0,0,0,-0.2088,-0.2089,-0.2157,-0.2157,-0.2158,-0.2189,-0.2189,-0.219,-0.2175,-0.2174,-0.2173,-0.2172,-0.2152,-0.2152,-0.2152,0,0,0,0,0,0,0,0,0,0,0,0,0,-0.2117,-0.209,-0.2157,-0.2155,-0.2156,-0.2189,-0.2189,-0.219,-0.2175,-0.2174,-0.2173,-0.2172,-0.2152,-0.2152,-0.2152,-0.2174,0,0,-0.2153,-0.2153,0,0,0,0,0,0,0,0,-0.2116,-0.212,-0.2155,-0.2155,-0.2156,-0.2178,-0.2158,-0.2182,-0.2175,-0.2166,-0.2173,-0.2172,-0.2158,-0.2157,-0.2164,-0.2173,-0.2172,-0.2153,-0.2153,-0.2153,-0.2153,0,0,0,0,0,0,0,-0.2114,-0.2118,-0.2168,-0.2156,-0.2156,-0.2155,-0.2158,-0.2162,-0.2165,-0.2167,-0.2166,-0.2172,-0.2157,-0.2164,-0.2164,-0.2171,-0.2153,-0.2153,-0.2153,-0.2153,-0.2204,-0.2206,0,0,0,0,0,0,-0.2114,-0.2117,-0.2167,-0.2169,-0.2134,-0.2157,-0.216,-0.2171,-0.2166,-0.2165,-0.2173,-0.2172,-0.2165,-0.2164,-0.2163,-0.2193,-0.2153,-0.2153,-0.2153,-0.2203,-0.2205,-0.2206,0,0,0,0,0,0,-0.2112,-0.2118,-0.2166,-0.2144,-0.215,-0.2159,-0.2171,-0.2172,-0.2176,-0.2172,-0.2169,-0.2176,-0.2164,-0.2163,-0.2167,-0.2192,-0.2153,-0.2153,-0.2202,-0.2204,-0.2205,-0.2251,0,0,0,0,0,0,-0.211,-0.2118,-0.2126,-0.2145,-0.2152,-0.2195,-0.2173,-0.2173,-0.2182,-0.218,-0.2174,-0.2171,-0.2163,-0.2167,-0.2167,-0.2192,-0.2153,-0.22,-0.2202,-0.2205,-0.2248,-0.2254,-0.2259,0,0,0,0,0,-0.2108,-0.2136,-0.2126,-0.2133,-0.2163,-0.2197,-0.2201,-0.2202,-0.2184,-0.2199,-0.2185,-0.2171,-0.2183,-0.2168,-0.2168,-0.2193,-0.2199,-0.2202,-0.2205,-0.2245,-0.2253,-0.2259,0,0,0,0,0,0,-0.2117,-0.2137,-0.2128,-0.2161,-0.2177,-0.2195,-0.2212,-0.2205,-0.2208,-0.2203,-0.2183,-0.2181,-0.2197,-0.219,-0.2174,-0.2216,-0.2191,-0.2194,-0.2222,-0.2229,-0.2235,-0.2251,-0.2154,0,0,0,0,0,-0.2121,-0.214,-0.2158,-0.2182,-0.2193,-0.2198,-0.221,-0.2213,-0.2218,-0.2219,-0.2212,-0.2208,-0.2212,-0.2214,-0.222,-0.2239,-0.2235,-0.2257,-0.2263,-0.2268,-0.2283,-0.2296,-0.2304,-0.2215,-0.2215,-0.2215,0,0,-0.2126,-0.2143,-0.215,-0.2184,-0.2194,-0.2231,-0.2203,-0.2232,-0.2259,-0.2216,-0.2245,-0.2229,-0.2222,-0.2246,-0.2253,-0.224,-0.229,-0.2272,-0.2276,-0.2288,-0.23,-0.2308,-0.2316,-0.2217,-0.2217,-0.2217,0,0,-0.2157,-0.2166,-0.2192,-0.2217,-0.2244,-0.2257,-0.2265,-0.2286,-0.229,-0.2313,-0.2289,-0.2286,-0.2296,-0.2297,-0.2296,-0.234,-0.2321,-0.2341,-0.2383,-0.2396,-0.2403,-0.2409,-0.2409,-0.2414,-0.2343,-0.2343,-0.2344,0,-0.2162,-0.2202,-0.2206,-0.2248,-0.2278,-0.2271,-0.2317,-0.2329,-0.2346,-0.2356,-0.2331,-0.2344,-0.2327,-0.2354,-0.2362,-0.2354,-0.2352,-0.2353,-0.2403,-0.2409,-0.2415,-0.2413,-0.2419,-0.2346,-0.2346,-0.2345,-0.2345,0,-0.2213,-0.2251,-0.2276,-0.2323,-0.2356,-0.2398,-0.2421,-0.2444,-0.244,-0.2443,-0.2464,-0.2438,-0.244,-0.2436,-0.2408,-0.2443,-0.2424,-0.2407,-0.2383,-0.2426,-0.2421,-0.2427,-0.235,-0.2349,-0.2348,-0.2347,0,0,-0.2204,-0.2294,-0.2298,-0.2341,-0.2403,-0.2437,-0.2492,-0.2537,-0.2564,-0.2563,-0.2591,-0.2582,-0.2547,-0.2545,-0.2509,-0.2513,-0.2534,-0.2476,-0.2476,-0.2472,-0.2554,-0.2473,-0.2471,-0.2522,-0.2524,-0.2525,-0.2531,0,-0.224,-0.2329,-0.2369,-0.2457,-0.2507,-0.2544,-0.2595,-0.2632,-0.2644,-0.2667,-0.264,-0.2646,-0.2595,-0.2581,-0.2581,-0.2539,-0.2552,-0.2534,-0.2516,-0.2516,-0.2436,-0.2476,-0.2378,-0.237,-0.2536,-0.2537,-0.2538,0,-0.2265,-0.233,-0.2416,-0.253,-0.2555,-0.2605,-0.2686,-0.2733,-0.2765,-0.2766,-0.2766,-0.2738,-0.2727,-0.2678,-0.2654,-0.2641,-0.2611,-0.2584,-0.2583,-0.2498,-0.2445,-0.2356,-0.2373,-0.2346,-0.2546,-0.2545,-0.2545,0,-0.2235,-0.2361,-0.243,-0.2469,-0.2588,-0.2634,-0.2695,-0.2751,-0.2792,-0.2816,-0.2831,-0.2817,-0.2788,-0.2769,-0.2687,-0.2678,-0.266,-0.2639,-0.2551,-0.2545,-0.2454,-0.2437,-0.2441,-0.2656,-0.2656,-0.2656,-0.2656,0,-0.2249,-0.2304,-0.242,-0.2456,-0.2548,-0.2632,-0.2712,-0.2762,-0.2826,-0.2855,-0.2863,-0.2859,-0.2808,-0.2779,-0.2726,-0.2639,-0.269,-0.2571,-0.2547,-0.2465,-0.245,-0.2414,-0.2416,-0.2657,-0.2657,-0.2657,-0.2657,0,-0.2191,-0.2264,-0.235,-0.2484,-0.2529,-0.2584,-0.2723,-0.2771,-0.2837,-0.2875,-0.2881,-0.2884,-0.2823,-0.2782,-0.2724,-0.2665,-0.2558,-0.2577,-0.2472,-0.2435,-0.2312,-0.2319,-0.229,-0.2235,-0.2488,-0.2486,-0.2484,0,-0.2167,-0.2199,-0.2342,-0.2383,-0.2441,-0.2546,-0.2611,-0.2738,-0.2789,-0.2868,-0.2871,-0.2849,-0.2782,-0.2684,-0.2586,-0.2503,-0.2481,-0.2376,-0.2343,-0.2302,-0.2294,-0.2293,-0.225,-0.2244,-0.224,-0.2237,-0.2235,0,-0.2116,-0.2153,-0.2225,-0.2307,-0.2381,-0.2471,-0.2577,-0.2622,-0.2742,-0.2757,-0.2739,-0.2703,-0.2644,-0.2484,-0.2402,-0.234,-0.2306,-0.2314,-0.2308,-0.2137,-0.2103,-0.2038,-0.2242,-0.221,-0.2213,-0.2214,-0.2216,-0.2217,-0.206,-0.2084,-0.2154,-0.2226,-0.2296,-0.2333,-0.2348,-0.2434,-0.2453,-0.2437,-0.252,-0.2429,-0.2392,-0.224,-0.2198,-0.2081,-0.2121,-0.2007,-0.203,-0.2042,-0.1957,-0.2097,-0.2011,-0.2013,-0.2014,-0.2015,-0.2016,0,-0.1985,-0.2015,-0.2069,-0.2123,-0.2126,-0.2205,-0.2272,-0.2229,-0.2158,-0.2197,-0.214,-0.2106,-0.1987,-0.1996,-0.191,-0.1828,-0.1801,-0.1776,-0.1771,-0.1748,-0.1897,-0.1851,-0.1683,-0.1683,-0.1683,-0.1683,-0.1683,-0.1683,-0.1944,-0.1952,-0.1977,-0.1932,-0.1949,-0.1882,-0.187,-0.1798,-0.1795,-0.1693,-0.1704,-0.1777,-0.182,-0.1888,-0.1784,-0.1703,-0.166,-0.1587,-0.1622,-0.1747,-0.1771,-0.1794,-0.1752,-0.1566,-0.1566,-0.1416,-0.1415,-0.1414]},{"header":{"parameterUnit":"m.s-1","parameterCategory":2,"la1":30.2991,"la2":30.254,"lo1":-89.0895,"lo2":-89.0444,"dy":0.0017,"dx":0.0017,"nx":28,"ny":28,"refTime":"2024-05-30T09:00:00:Z","depth":"0","parameterNumber":3,"parameterNumberName":"V-component_of_CURRENTS"},"data":[0,0,0,0,0,0,0,0,0,0,0,0,0,0,0,0,0,0,0,0,0,0,0,0,0,0,0,0,0,0,0,0,0,0,0,0,0,0,0,0,0,0,0,0,0,0,0,0,0,0,0,0,0,0,0,0,0,0,-0.0475,-0.0474,0,-0.0349,-0.0347,-0.0345,-0.0269,-0.0269,-0.027,-0.027,-0.013,-0.0126,-0.0122,0,0,0,0,0,0,0,0,0,0,0,0,0,-0.0464,-0.0465,-0.0475,-0.0474,-0.0473,-0.035,-0.0347,-0.0345,-0.0269,-0.0269,-0.027,-0.027,-0.0132,-0.0127,-0.0122,0,0,0,0,0,0,0,0,0,0,0,0,0,-0.041,-0.0465,-0.0475,-0.0426,-0.0421,-0.035,-0.0347,-0.0344,-0.0269,-0.0269,-0.027,-0.027,-0.0133,-0.0127,-0.0121,-0.0075,0,0,-0.0103,-0.01,0,0,0,0,0,0,0,0,-0.0413,-0.0409,-0.0434,-0.0429,-0.0424,-0.0332,-0.0292,-0.0256,-0.0269,-0.0319,-0.027,-0.027,-0.0201,-0.0189,-0.0154,-0.0068,-0.0062,-0.0102,-0.0099,-0.0096,-0.0094,0,0,0,0,0,0,0,-0.0417,-0.0413,-0.0418,-0.0433,-0.0427,-0.0347,-0.0341,-0.0283,-0.0253,-0.0314,-0.031,-0.0308,-0.0197,-0.016,-0.015,-0.006,-0.0103,-0.0097,-0.0094,-0.0091,0.0045,0.0045,0,0,0,0,0,0,-0.0457,-0.0418,-0.0422,-0.0415,-0.0428,-0.0348,-0.0341,-0.0355,-0.0253,-0.0241,-0.0308,-0.0305,-0.017,-0.0158,-0.0145,-0.01,-0.0096,-0.0091,-0.0087,0.0045,0.0045,0.0045,0,0,0,0,0,0,-0.0458,-0.0459,-0.0427,-0.0418,-0.0409,-0.035,-0.0365,-0.0352,-0.0316,-0.025,-0.0236,-0.0287,-0.017,-0.0154,-0.0091,-0.0094,-0.0088,-0.0082,0.0045,0.0045,0.0045,-0.0,0,0,0,0,0,0,-0.0458,-0.0461,-0.0472,-0.0422,-0.0412,-0.0389,-0.0365,-0.035,-0.0318,-0.0313,-0.0227,-0.0214,-0.0169,-0.0101,-0.0085,-0.0086,-0.0078,0.0045,0.0045,0.0045,0.0001,-0.0002,-0.0004,0,0,0,0,0,-0.0458,-0.0474,-0.0474,-0.0474,-0.0435,-0.039,-0.0375,-0.0328,-0.0317,-0.0297,-0.0241,-0.0217,-0.0091,-0.0095,-0.0077,-0.0076,0.0045,0.0045,0.0045,0.0003,-0.0001,-0.0004,0,0,0,0,0,0,-0.0458,-0.0467,-0.0466,-0.048,-0.0443,-0.038,-0.036,-0.0331,-0.0267,-0.0264,-0.02,-0.0182,-0.0132,-0.0097,-0.0103,-0.0039,-0.0025,-0.0022,-0.0064,-0.0067,-0.0069,-0.0082,-0.0073,0,0,0,0,0,-0.0473,-0.0496,-0.0472,-0.0479,-0.047,-0.0416,-0.039,-0.0361,-0.0307,-0.0279,-0.0222,-0.0167,-0.0116,-0.0087,-0.0033,0.0012,0.0038,0.0018,0.0015,0.0012,0.0013,0.0035,0.0034,0.0045,0.0045,0.0045,0,0,-0.0474,-0.0482,-0.0493,-0.0482,-0.0451,-0.0427,-0.0399,-0.0367,-0.0337,-0.0275,-0.0213,-0.0167,-0.0105,-0.0056,-0.0032,-0.0028,0.0026,0.0012,0.001,0.0012,0.0035,0.0034,0.0033,0.0045,0.0045,0.0045,0,0,-0.0483,-0.0497,-0.0517,-0.0497,-0.0472,-0.0433,-0.0431,-0.0374,-0.034,-0.0281,-0.0235,-0.0194,-0.0106,-0.0067,-0.0036,-0.0022,0.0013,-0.0012,-0.0034,-0.0013,-0.0014,-0.0015,0.0029,0.0033,-0.0017,-0.0017,-0.0017,0,-0.0478,-0.051,-0.0505,-0.0508,-0.0494,-0.0444,-0.0435,-0.0385,-0.031,-0.0286,-0.0272,-0.0161,-0.0113,-0.006,-0.0056,-0.0029,-0.0004,-0.0026,-0.0018,-0.0018,-0.0018,0.0028,0.0032,-0.0019,-0.0019,-0.0019,-0.0018,0,-0.0501,-0.0517,-0.052,-0.052,-0.0496,-0.0479,-0.0431,-0.039,-0.035,-0.0308,-0.0251,-0.0184,-0.0127,-0.011,-0.0072,-0.0048,-0.0024,-0.0023,-0.0013,-0.0022,0.0027,0.0033,-0.0022,-0.0021,-0.0021,-0.002,0,0,-0.051,-0.0535,-0.0536,-0.0547,-0.0508,-0.0492,-0.0443,-0.0391,-0.0367,-0.0301,-0.0271,-0.0191,-0.017,-0.0135,-0.0094,-0.0074,-0.0045,-0.0051,-0.0049,-0.0012,0.0019,0.0069,0.008,-0.0047,-0.0046,-0.0046,0.0057,0,-0.0524,-0.0559,-0.0553,-0.0552,-0.0561,-0.0509,-0.0473,-0.0421,-0.0364,-0.0316,-0.0259,-0.0213,-0.0175,-0.0158,-0.0129,-0.006,-0.0034,-0.0071,0.0028,0.0031,0.0071,0.0086,0.0107,0.0203,0.0063,0.0064,0.0065,0,-0.0552,-0.0574,-0.0598,-0.06,-0.0598,-0.0577,-0.0526,-0.0485,-0.0404,-0.0367,-0.0312,-0.0261,-0.0197,-0.0184,-0.0076,-0.0101,-0.0046,-0.0,0.0005,0.007,0.0091,0.0188,0.0219,0.033,0.0074,0.0073,0.0072,0,-0.0592,-0.0604,-0.0633,-0.0632,-0.0616,-0.0605,-0.0575,-0.0505,-0.0478,-0.0397,-0.0372,-0.0292,-0.0248,-0.0174,-0.0055,-0.0072,0.0063,0.0048,0.0146,0.0152,0.02,0.0208,0.0345,0.0104,0.0104,0.0104,0.0103,0,-0.0627,-0.0647,-0.0659,-0.0675,-0.0698,-0.0658,-0.0649,-0.0603,-0.0539,-0.0509,-0.041,-0.0365,-0.0248,-0.0147,-0.0058,0.0085,0.0064,0.0156,0.018,0.0187,0.0193,0.0316,0.0356,0.0108,0.0107,0.0106,0.0105,0,-0.0681,-0.0686,-0.0724,-0.0725,-0.0727,-0.0744,-0.0716,-0.0705,-0.0623,-0.0575,-0.0554,-0.0418,-0.0274,-0.0135,0.0006,0.0088,0.0286,0.0258,0.0277,0.0302,0.0478,0.0514,0.0685,0.0743,0.0374,0.0376,0.0377,0,-0.0713,-0.0746,-0.0782,-0.0817,-0.0822,-0.0832,-0.0839,-0.0766,-0.0742,-0.06,-0.0586,-0.0427,-0.031,-0.0052,0.0125,0.031,0.0378,0.0428,0.039,0.0508,0.0566,0.0593,0.063,0.0445,0.0447,0.0449,0.045,0,-0.0783,-0.0802,-0.0844,-0.0918,-0.0946,-0.0963,-0.0952,-0.0944,-0.0834,-0.0763,-0.0637,-0.0526,-0.0242,-0.0,0.0262,0.0361,0.0517,0.0465,0.0577,0.0631,0.0681,0.0741,0.0374,0.0464,0.0463,0.0462,0.0461,0.046,-0.0839,-0.0899,-0.0963,-0.103,-0.1063,-0.108,-0.108,-0.1036,-0.0982,-0.0839,-0.0711,-0.0508,-0.0116,0.0262,0.0396,0.0686,0.0642,0.0744,0.078,0.0799,0.085,0.053,0.0649,0.0649,0.0649,0.0649,0.0648,0,-0.0916,-0.0986,-0.1068,-0.1138,-0.1184,-0.1168,-0.1147,-0.1108,-0.1034,-0.0874,-0.0725,-0.0293,0.0077,0.0428,0.0864,0.1,0.1009,0.1059,0.1096,0.1117,0.083,0.0828,0.1005,0.1004,0.1004,0.1004,0.1004,0.1004,-0.0963,-0.1075,-0.1125,-0.1233,-0.1265,-0.1276,-0.1255,-0.1164,-0.1035,-0.0771,-0.0516,-0.0323,0.0218,0.0939,0.1312,0.1316,0.1419,0.1405,0.1467,0.126,0.1232,0.1206,0.1215,0.1471,0.1471,0.1735,0.1738,0.174]}],[{"header":{"parameterUnit":"m.s-1","parameterCategory":2,"la1":30.2991,"la2":30.254,"lo1":-89.0895,"lo2":-89.0444,"dy":0.0017,"dx":0.0017,"nx":28,"ny":28,"refTime":"2024-05-30T09:00:00:Z","depth":"2","parameterNumber":2,"parameterNumberName":"U-component_of_CURRENTS"},"data":[0,0,0,0,0,0,0,0,0,0,0,0,0,0,0,0,0,0,0,0,0,0,0,0,0,0,0,0,0,0,0,0,0,0,0,0,0,0,0,0,0,0,0,0,0,0,0,0,0,0,0,0,0,0,0,0,0,0,-0.1878,-0.1878,0,-0.188,-0.188,-0.188,-0.187,-0.187,-0.187,-0.187,-0.1886,-0.1886,-0.1887,0,0,0,0,0,0,0,0,0,0,0,0,0,-0.1739,-0.1742,-0.1878,-0.1878,-0.1878,-0.188,-0.188,-0.188,-0.187,-0.187,-0.187,-0.1869,-0.1885,-0.1886,-0.1887,0,0,0,0,0,0,0,0,0,0,0,0,0,-0.1776,-0.1743,-0.1878,-0.1874,-0.1873,-0.188,-0.188,-0.188,-0.187,-0.187,-0.187,-0.1869,-0.1885,-0.1886,-0.1887,-0.1901,0,0,-0.189,-0.189,0,0,0,0,0,0,0,0,-0.1774,-0.1781,-0.1874,-0.1874,-0.1874,-0.1875,-0.1836,-0.1888,-0.1871,-0.1871,-0.187,-0.1869,-0.1884,-0.1885,-0.1885,-0.1901,-0.1902,-0.189,-0.1891,-0.1891,-0.1891,0,0,0,0,0,0,0,-0.1771,-0.178,-0.1878,-0.1874,-0.1874,-0.1828,-0.1834,-0.1845,-0.188,-0.1871,-0.1871,-0.1871,-0.1884,-0.1884,-0.1886,-0.1902,-0.189,-0.1891,-0.1892,-0.1892,-0.1904,-0.1904,0,0,0,0,0,0,-0.178,-0.1779,-0.1878,-0.1879,-0.1822,-0.1831,-0.1838,-0.1875,-0.1879,-0.188,-0.1872,-0.1871,-0.1883,-0.1885,-0.1886,-0.1929,-0.1891,-0.1892,-0.1893,-0.1904,-0.1904,-0.1904,0,0,0,0,0,0,-0.1777,-0.179,-0.1878,-0.1826,-0.1834,-0.1835,-0.1875,-0.1875,-0.1886,-0.1879,-0.188,-0.1885,-0.1883,-0.1885,-0.1886,-0.1929,-0.1893,-0.1893,-0.1905,-0.1904,-0.1904,-0.1998,0,0,0,0,0,0,-0.1774,-0.179,-0.1818,-0.1828,-0.1837,-0.1901,-0.1876,-0.1875,-0.1887,-0.1886,-0.1891,-0.1891,-0.1883,-0.1885,-0.1887,-0.1929,-0.1894,-0.1905,-0.1904,-0.1904,-0.1995,-0.2001,-0.2005,0,0,0,0,0,-0.177,-0.181,-0.182,-0.1831,-0.1878,-0.1902,-0.1903,-0.1899,-0.1888,-0.1906,-0.1885,-0.1892,-0.1883,-0.1885,-0.1888,-0.1932,-0.1905,-0.1905,-0.1904,-0.1993,-0.2,-0.2005,0,0,0,0,0,0,-0.1752,-0.1813,-0.1824,-0.1879,-0.1898,-0.1901,-0.1912,-0.191,-0.1909,-0.1906,-0.1891,-0.189,-0.19,-0.1893,-0.1896,-0.1926,-0.1895,-0.1895,-0.1961,-0.1968,-0.1973,-0.2004,-0.1895,0,0,0,0,0,-0.1766,-0.1823,-0.1853,-0.1896,-0.1909,-0.1913,-0.1921,-0.1925,-0.1924,-0.1924,-0.193,-0.1918,-0.19,-0.1915,-0.19,-0.1932,-0.1926,-0.1956,-0.1961,-0.1966,-0.1988,-0.2007,-0.2018,-0.1902,-0.1902,-0.1902,0,0,-0.1769,-0.1809,-0.1839,-0.1897,-0.1909,-0.1937,-0.1918,-0.1943,-0.1961,-0.1926,-0.1956,-0.1935,-0.1903,-0.1922,-0.193,-0.193,-0.1989,-0.1965,-0.1971,-0.199,-0.2008,-0.202,-0.2031,-0.1901,-0.1901,-0.1901,0,0,-0.1797,-0.1843,-0.1895,-0.1918,-0.1953,-0.1959,-0.1972,-0.1997,-0.2003,-0.2022,-0.1986,-0.1993,-0.199,-0.1986,-0.1973,-0.2,-0.2,-0.1994,-0.2077,-0.2095,-0.2107,-0.2116,-0.2107,-0.2115,-0.2018,-0.2019,-0.2019,0,-0.1797,-0.1868,-0.1906,-0.195,-0.1973,-0.1974,-0.2015,-0.2018,-0.204,-0.2061,-0.2041,-0.2041,-0.2021,-0.2039,-0.2043,-0.2021,-0.2018,-0.2063,-0.2108,-0.2117,-0.2126,-0.2113,-0.2121,-0.2023,-0.2022,-0.2022,-0.2022,0,-0.1855,-0.1908,-0.1933,-0.2002,-0.2036,-0.2066,-0.2087,-0.2119,-0.2125,-0.2136,-0.2163,-0.2134,-0.2141,-0.2134,-0.2098,-0.2151,-0.2123,-0.21,-0.2105,-0.2144,-0.2127,-0.2134,-0.2029,-0.2028,-0.2026,-0.2025,0,0,-0.1852,-0.1959,-0.1962,-0.2005,-0.2066,-0.2097,-0.2144,-0.2192,-0.2235,-0.2244,-0.2297,-0.227,-0.2272,-0.2256,-0.2226,-0.2256,-0.2299,-0.222,-0.2218,-0.2234,-0.2329,-0.2223,-0.222,-0.2295,-0.2297,-0.2298,-0.2288,0,-0.1877,-0.1962,-0.2021,-0.2092,-0.2133,-0.2179,-0.2235,-0.2283,-0.2308,-0.2359,-0.234,-0.2358,-0.2307,-0.232,-0.234,-0.2294,-0.2324,-0.2303,-0.2269,-0.2267,-0.2189,-0.2227,-0.2071,-0.2043,-0.2295,-0.2296,-0.2296,0,-0.189,-0.1956,-0.2037,-0.2156,-0.2185,-0.2224,-0.2327,-0.2385,-0.2449,-0.2477,-0.2504,-0.2485,-0.2496,-0.2452,-0.2436,-0.2426,-0.2396,-0.2371,-0.2369,-0.2249,-0.2175,-0.2044,-0.2045,-0.2307,-0.2306,-0.2306,-0.2305,0,-0.1837,-0.1953,-0.2022,-0.2055,-0.2195,-0.2242,-0.2308,-0.2406,-0.247,-0.2538,-0.2579,-0.2592,-0.2572,-0.2563,-0.2469,-0.2473,-0.2444,-0.2436,-0.232,-0.231,-0.216,-0.2134,-0.2462,-0.2462,-0.2462,-0.2462,-0.2462,0,-0.1819,-0.1871,-0.1991,-0.2026,-0.2117,-0.2228,-0.2333,-0.2402,-0.2515,-0.2575,-0.2621,-0.2628,-0.2603,-0.2563,-0.2512,-0.2406,-0.2468,-0.2346,-0.2312,-0.2181,-0.2159,-0.2373,-0.2363,-0.2462,-0.2462,-0.2462,-0.2462,0,-0.1744,-0.1827,-0.1902,-0.2042,-0.2088,-0.214,-0.2309,-0.2386,-0.2507,-0.2577,-0.2595,-0.264,-0.2579,-0.2536,-0.2486,-0.2425,-0.2362,-0.2315,-0.2142,-0.2089,-0.2217,-0.2211,-0.2224,-0.2221,-0.2218,-0.2215,-0.2213,0,-0.1712,-0.1747,-0.1876,-0.192,-0.1974,-0.2084,-0.2169,-0.233,-0.24,-0.2548,-0.2549,-0.2551,-0.2485,-0.2378,-0.229,-0.2198,-0.2254,-0.2011,-0.2002,-0.2232,-0.2199,-0.2198,-0.2196,-0.1832,-0.1827,-0.1823,-0.182,0,-0.1652,-0.1692,-0.176,-0.1839,-0.1904,-0.2,-0.2106,-0.2153,-0.2333,-0.2373,-0.2375,-0.2348,-0.2294,-0.211,-0.2023,-0.1951,-0.2018,-0.1924,-0.2217,-0.191,-0.186,-0.1827,-0.184,-0.1783,-0.1787,-0.1789,-0.1791,-0.1793,-0.1588,-0.16,-0.1679,-0.1744,-0.1819,-0.1856,-0.1876,-0.1966,-0.2006,-0.2037,-0.211,-0.2031,-0.2034,-0.181,-0.1708,-0.1648,-0.1786,-0.1713,-0.1728,-0.1746,-0.1696,-0.1643,-0.1515,-0.1516,-0.1518,-0.152,-0.1521,0,-0.1488,-0.1531,-0.1591,-0.1642,-0.1658,-0.1742,-0.1808,-0.1781,-0.1722,-0.1774,-0.1738,-0.1572,-0.1477,-0.1495,-0.1363,-0.1341,-0.1349,-0.1272,-0.129,-0.1326,-0.1359,-0.1291,-0.1001,-0.1,-0.0998,-0.0997,0,0,-0.1449,-0.1453,-0.1483,-0.1458,-0.15,-0.146,-0.1451,-0.139,-0.1392,-0.1289,-0.1269,-0.1385,-0.1455,-0.1227,-0.1174,-0.107,-0.1186,-0.1017,-0.1433,-0.1489,-0.152,-0.1609,-0.1545,0,0,0,0,0]},{"header":{"parameterUnit":"m.s-1","parameterCategory":2,"la1":30.2991,"la2":30.254,"lo1":-89.0895,"lo2":-89.0444,"dy":0.0017,"dx":0.0017,"nx":28,"ny":28,"refTime":"2024-05-30T09:00:00:Z","depth":"2","parameterNumber":3,"parameterNumberName":"V-component_of_CURRENTS"},"data":[0,0,0,0,0,0,0,0,0,0,0,0,0,0,0,0,0,0,0,0,0,0,0,0,0,0,0,0,0,0,0,0,0,0,0,0,0,0,0,0,0,0,0,0,0,0,0,0,0,0,0,0,0,0,0,0,0,0,-0.0395,-0.0394,0,-0.0276,-0.0274,-0.0273,-0.021,-0.021,-0.0211,-0.0211,-0.008,-0.0076,-0.0073,0,0,0,0,0,0,0,0,0,0,0,0,0,-0.0347,-0.035,-0.0395,-0.0394,-0.0393,-0.0276,-0.0274,-0.0272,-0.021,-0.021,-0.0211,-0.0211,-0.0081,-0.0077,-0.0072,0,0,0,0,0,0,0,0,0,0,0,0,0,-0.0308,-0.035,-0.0395,-0.0352,-0.0347,-0.0277,-0.0274,-0.0272,-0.021,-0.021,-0.0211,-0.0211,-0.0083,-0.0077,-0.0072,-0.0026,0,0,-0.0054,-0.0052,0,0,0,0,0,0,0,0,-0.0311,-0.031,-0.0359,-0.0355,-0.0349,-0.0263,-0.0209,-0.019,-0.021,-0.0257,-0.0211,-0.0211,-0.0143,-0.0132,-0.0102,-0.002,-0.0014,-0.0054,-0.005,-0.0048,-0.0046,0,0,0,0,0,0,0,-0.0314,-0.0313,-0.0343,-0.0358,-0.0352,-0.0262,-0.0259,-0.0204,-0.0194,-0.0253,-0.0249,-0.0243,-0.0139,-0.0107,-0.0098,-0.0012,-0.0054,-0.0049,-0.0045,-0.0043,0.0106,0.0106,0,0,0,0,0,0,-0.035,-0.0317,-0.0347,-0.034,-0.0336,-0.0264,-0.026,-0.0286,-0.0195,-0.0183,-0.0243,-0.0241,-0.0117,-0.0105,-0.0094,-0.0048,-0.0048,-0.0042,-0.0039,0.0105,0.0106,0.0106,0,0,0,0,0,0,-0.035,-0.0355,-0.0352,-0.0327,-0.0321,-0.0267,-0.0295,-0.0283,-0.0256,-0.0189,-0.0176,-0.0229,-0.0117,-0.0102,-0.0038,-0.0042,-0.004,-0.0035,0.0105,0.0105,0.0106,0.0053,0,0,0,0,0,0,-0.035,-0.0357,-0.0376,-0.0331,-0.0324,-0.0315,-0.0294,-0.0281,-0.0254,-0.0249,-0.0172,-0.016,-0.0116,-0.0047,-0.0033,-0.0034,-0.003,0.0104,0.0105,0.0106,0.0054,0.0052,0.005,0,0,0,0,0,-0.0349,-0.0371,-0.0379,-0.0381,-0.0359,-0.0315,-0.0302,-0.0259,-0.0253,-0.0236,-0.0181,-0.0162,-0.0032,-0.0041,-0.0025,-0.0025,0.0104,0.0105,0.0106,0.0055,0.0052,0.005,0,0,0,0,0,0,-0.0339,-0.0366,-0.0373,-0.0399,-0.0367,-0.0307,-0.0288,-0.0264,-0.0206,-0.0204,-0.0143,-0.0126,-0.0073,-0.0038,-0.005,0.0021,0.0034,0.0039,-0.001,-0.0012,-0.0014,-0.0034,-0.0025,0,0,0,0,0,-0.0357,-0.0396,-0.038,-0.0397,-0.039,-0.0343,-0.0318,-0.0293,-0.0242,-0.0217,-0.0164,-0.0109,-0.0053,-0.0026,0.0031,0.0076,0.01,0.0083,0.0081,0.0079,0.0076,0.0099,0.0098,0.011,0.011,0.011,0,0,-0.0356,-0.0376,-0.0394,-0.0399,-0.0373,-0.0351,-0.0328,-0.0299,-0.0269,-0.0212,-0.0153,-0.0109,-0.004,0.0011,0.0035,0.0038,0.0093,0.0081,0.0078,0.0076,0.01,0.0098,0.0097,0.0111,0.0111,0.0111,0,0,-0.0365,-0.0396,-0.0426,-0.0409,-0.0391,-0.0356,-0.0355,-0.0305,-0.0274,-0.0215,-0.0171,-0.013,-0.004,0.0002,0.0036,0.0057,0.0085,0.0069,0.0041,0.0063,0.0061,0.006,0.0103,0.0107,0.0063,0.0062,0.0062,0,-0.0358,-0.0406,-0.0414,-0.0423,-0.041,-0.0366,-0.036,-0.031,-0.024,-0.0219,-0.0206,-0.0094,-0.0044,0.0013,0.0018,0.005,0.0072,0.0041,0.0057,0.0057,0.0057,0.0101,0.0105,0.006,0.006,0.0061,0.0061,0,-0.0383,-0.0412,-0.0418,-0.0432,-0.0411,-0.0395,-0.0348,-0.031,-0.0275,-0.0234,-0.0178,-0.0111,-0.0054,-0.0034,0.0003,0.0026,0.0047,0.0053,0.0056,0.0052,0.01,0.0105,0.0057,0.0057,0.0058,0.0059,0,0,-0.0398,-0.0434,-0.0438,-0.0453,-0.0421,-0.0407,-0.0356,-0.0307,-0.0286,-0.0222,-0.0195,-0.0111,-0.0099,-0.006,-0.0021,-0.0003,0.002,0.0016,0.0018,0.0046,0.0082,0.0104,0.0113,0.0019,0.002,0.002,0.012,0,-0.0412,-0.0454,-0.0455,-0.0457,-0.047,-0.0421,-0.0386,-0.0336,-0.0281,-0.0237,-0.0179,-0.0135,-0.0099,-0.0088,-0.0062,0.0006,0.0029,-0.0007,0.0094,0.0098,0.0106,0.0118,0.0107,0.0196,0.0126,0.0127,0.0127,0,-0.0439,-0.047,-0.0499,-0.0507,-0.0508,-0.0487,-0.0442,-0.0401,-0.0323,-0.029,-0.0239,-0.0191,-0.0131,-0.012,-0.0013,-0.004,0.0013,0.0058,0.0063,0.0103,0.0129,0.0188,0.0208,0.0136,0.0136,0.0135,0.0134,0,-0.0474,-0.0495,-0.0528,-0.0528,-0.0523,-0.0513,-0.0486,-0.0422,-0.0398,-0.0324,-0.0306,-0.0227,-0.0184,-0.0114,-0.0003,-0.0014,0.0107,0.0106,0.018,0.0184,0.0206,0.021,0.016,0.016,0.016,0.0159,0.0159,0,-0.0505,-0.0528,-0.055,-0.057,-0.0598,-0.0565,-0.0564,-0.0518,-0.0462,-0.0441,-0.0345,-0.0312,-0.0187,-0.0094,-0.0011,0.0116,0.0108,0.0182,0.0207,0.019,0.0192,0.016,0.0159,0.0163,0.0162,0.0162,0.0161,0,-0.0553,-0.0564,-0.0607,-0.062,-0.0625,-0.0643,-0.0627,-0.0621,-0.0549,-0.0513,-0.0494,-0.0366,-0.0237,-0.0099,0.0036,0.0115,0.0223,0.0263,0.0249,0.0269,0.0288,0.0283,0.0356,0.0358,0.0359,0.036,0.0361,0,-0.0581,-0.0617,-0.0664,-0.0703,-0.0715,-0.0731,-0.0747,-0.0681,-0.0663,-0.0546,-0.0535,-0.0393,-0.0291,-0.0054,0.0108,0.028,0.0266,0.0359,0.0328,0.0289,0.0306,0.0299,0.0293,0.035,0.0351,0.0352,0.0352,0,-0.0647,-0.0669,-0.0718,-0.0802,-0.0835,-0.0861,-0.0858,-0.0855,-0.0761,-0.0698,-0.0591,-0.0495,-0.0245,-0.0038,0.0196,0.0282,0.0332,0.0376,0.0345,0.0293,0.0289,0.0304,0.0297,0.0358,0.0357,0.0357,0.0356,0.0356,-0.0695,-0.0756,-0.0829,-0.0904,-0.0946,-0.0972,-0.0975,-0.0941,-0.0892,-0.076,-0.0658,-0.0473,-0.0251,0.0084,0.025,0.0403,0.0386,0.0422,0.0418,0.0414,0.0385,0.0383,0.0466,0.0466,0.0466,0.0466,0.0466,0,-0.0753,-0.0834,-0.0925,-0.1001,-0.1053,-0.1049,-0.1041,-0.1001,-0.0928,-0.0789,-0.065,-0.0397,-0.0145,0.0078,0.0333,0.0475,0.0454,0.0488,0.0444,0.0438,0.0433,0.0403,0.049,0.049,0.0491,0.0491,0,0,-0.0794,-0.0906,-0.0962,-0.1077,-0.1121,-0.1141,-0.1127,-0.1032,-0.0915,-0.0762,-0.0607,-0.041,-0.0131,0.0056,0.0249,0.0383,0.0363,0.0383,0.035,0.027,0.0263,0.0383,0.033,0,0,0,0,0]}],[{"header":{"parameterUnit":"m.s-1","parameterCategory":2,"la1":30.2991,"la2":30.254,"lo1":-89.0895,"lo2":-89.0444,"dy":0.0017,"dx":0.0017,"nx":28,"ny":28,"refTime":"2024-05-30T09:00:00:Z","depth":"4","parameterNumber":2,"parameterNumberName":"U-component_of_CURRENTS"},"data":[0,0,0,0,0,0,0,0,0,0,0,0,0,0,0,0,0,0,0,0,0,0,0,0,0,0,0,0,0,0,0,0,0,0,0,0,0,0,0,0,0,0,0,0,0,0,0,0,0,0,0,0,0,0,0,0,0,0,-0.0447,-0.0447,0,-0.0499,-0.05,-0.0501,-0.0573,-0.0575,-0.0576,-0.0577,-0.0674,-0.0675,-0.0677,0,0,0,0,0,0,0,0,0,0,0,0,0,-0.0525,-0.0523,-0.0447,-0.0447,-0.0448,-0.0499,-0.05,-0.0501,-0.0573,-0.0575,-0.0576,-0.0577,-0.0673,-0.0675,-0.0677,0,0,0,0,0,0,0,0,0,0,0,0,0,-0.0528,-0.0522,-0.0447,-0.0488,-0.0492,-0.0499,-0.05,-0.0501,-0.0573,-0.0575,-0.0576,-0.0578,-0.0673,-0.0675,-0.0677,-0.0662,0,0,-0.0685,-0.0686,0,0,0,0,0,0,0,0,-0.0527,-0.0525,-0.0482,-0.0485,-0.049,-0.053,-0.0564,-0.0556,-0.0573,-0.0545,-0.0577,-0.0578,-0.0627,-0.0633,-0.0642,-0.0666,-0.067,-0.0685,-0.0687,-0.0688,-0.0688,0,0,0,0,0,0,0,-0.0527,-0.0524,-0.047,-0.0482,-0.0487,-0.0544,-0.0545,-0.0563,-0.0579,-0.0547,-0.0552,-0.0554,-0.063,-0.064,-0.0645,-0.0672,-0.0685,-0.0687,-0.0689,-0.069,-0.0798,-0.0799,0,0,0,0,0,0,-0.0507,-0.0522,-0.0468,-0.0471,-0.051,-0.0541,-0.0542,-0.0517,-0.0578,-0.0588,-0.0553,-0.0557,-0.0635,-0.0642,-0.0649,-0.0725,-0.0688,-0.069,-0.0691,-0.0797,-0.0798,-0.08,0,0,0,0,0,0,-0.0508,-0.0501,-0.0466,-0.0499,-0.0498,-0.0537,-0.0509,-0.0517,-0.0562,-0.0581,-0.0593,-0.0592,-0.0636,-0.0646,-0.0703,-0.0726,-0.0691,-0.0693,-0.0795,-0.0797,-0.0799,-0.0818,0,0,0,0,0,0,-0.051,-0.05,-0.0476,-0.0496,-0.0495,-0.0493,-0.0507,-0.0517,-0.0558,-0.0565,-0.0618,-0.0627,-0.0638,-0.0699,-0.0705,-0.0729,-0.0695,-0.0793,-0.0796,-0.0798,-0.0816,-0.0821,-0.0825,0,0,0,0,0,-0.0512,-0.048,-0.0474,-0.0468,-0.0459,-0.0494,-0.05,-0.0536,-0.0558,-0.0582,-0.0624,-0.0627,-0.072,-0.0702,-0.0709,-0.0734,-0.0792,-0.0795,-0.0798,-0.0814,-0.082,-0.0825,0,0,0,0,0,0,-0.0525,-0.0484,-0.0479,-0.044,-0.0473,-0.0506,-0.0525,-0.0551,-0.0602,-0.0621,-0.0644,-0.0656,-0.071,-0.0723,-0.0703,-0.0774,-0.0756,-0.0761,-0.0766,-0.0772,-0.0776,-0.0808,-0.0697,0,0,0,0,0,-0.0504,-0.0458,-0.0466,-0.0443,-0.0458,-0.0497,-0.0516,-0.0549,-0.0591,-0.0617,-0.0646,-0.0686,-0.072,-0.075,-0.0773,-0.0816,-0.0841,-0.0837,-0.0842,-0.0846,-0.0877,-0.0965,-0.0981,-0.081,-0.081,-0.081,0,0,-0.0516,-0.0476,-0.0461,-0.0441,-0.0469,-0.0503,-0.0515,-0.0562,-0.0603,-0.0617,-0.0681,-0.07,-0.0734,-0.0779,-0.0805,-0.0801,-0.0893,-0.085,-0.0852,-0.0883,-0.097,-0.0987,-0.1002,-0.0812,-0.0812,-0.0812,0,0,-0.0512,-0.0476,-0.0446,-0.0469,-0.0495,-0.0524,-0.0545,-0.0592,-0.0628,-0.0677,-0.0703,-0.0755,-0.0787,-0.0833,-0.0856,-0.0906,-0.0909,-0.0898,-0.0956,-0.104,-0.1055,-0.1069,-0.1059,-0.1073,-0.0908,-0.0908,-0.0908,0,-0.0537,-0.0472,-0.0459,-0.0458,-0.0483,-0.0539,-0.057,-0.0616,-0.0678,-0.0721,-0.0704,-0.0806,-0.082,-0.0918,-0.0923,-0.0919,-0.0935,-0.0927,-0.1047,-0.1062,-0.1076,-0.1063,-0.1078,-0.091,-0.091,-0.0909,-0.0909,0,-0.05,-0.0487,-0.0492,-0.0488,-0.0525,-0.0565,-0.0626,-0.0682,-0.072,-0.0764,-0.0857,-0.0884,-0.0959,-0.0953,-0.0946,-0.1056,-0.102,-0.1034,-0.1032,-0.1095,-0.1076,-0.109,-0.0912,-0.0911,-0.0911,-0.091,0,0,-0.0534,-0.0464,-0.05,-0.0525,-0.0544,-0.0619,-0.0664,-0.0751,-0.0842,-0.0881,-0.0982,-0.1023,-0.1059,-0.109,-0.1103,-0.1163,-0.1228,-0.1137,-0.1141,-0.1124,-0.1353,-0.1255,-0.126,-0.1268,-0.1272,-0.1275,-0.1276,0,-0.054,-0.0531,-0.0492,-0.0593,-0.062,-0.0671,-0.0704,-0.0804,-0.0886,-0.0998,-0.1061,-0.1153,-0.1109,-0.1155,-0.1211,-0.1228,-0.1279,-0.1223,-0.1299,-0.13,-0.1207,-0.1281,-0.1289,-0.1287,-0.129,-0.1292,-0.1294,0,-0.0557,-0.0544,-0.0573,-0.0638,-0.0663,-0.0727,-0.088,-0.0911,-0.1044,-0.1104,-0.1221,-0.1279,-0.137,-0.1333,-0.1414,-0.1377,-0.1379,-0.1381,-0.1382,-0.131,-0.1235,-0.123,-0.1321,-0.1319,-0.1317,-0.1315,-0.1313,0,-0.0631,-0.0664,-0.0688,-0.0711,-0.0746,-0.0809,-0.0848,-0.0959,-0.1,-0.1203,-0.1279,-0.1408,-0.1462,-0.1516,-0.1497,-0.1472,-0.1571,-0.1541,-0.1457,-0.1445,-0.152,-0.1506,-0.1645,-0.1645,-0.1645,-0.1645,-0.1645,0,-0.0649,-0.0714,-0.0747,-0.0781,-0.0857,-0.0876,-0.0983,-0.1049,-0.1129,-0.1189,-0.1341,-0.142,-0.1519,-0.1575,-0.1557,-0.1533,-0.1623,-0.1489,-0.1472,-0.1515,-0.1501,-0.1525,-0.1511,-0.1645,-0.1645,-0.1645,-0.1645,0,-0.0682,-0.0691,-0.0753,-0.0831,-0.0871,-0.0934,-0.0994,-0.1061,-0.1145,-0.1236,-0.129,-0.1434,-0.1501,-0.1574,-0.1643,-0.1585,-0.1594,-0.1575,-0.1575,-0.1553,-0.1381,-0.1369,-0.1471,-0.1468,-0.1466,-0.1464,-0.1462,0,-0.0662,-0.0681,-0.0796,-0.0838,-0.0868,-0.0955,-0.097,-0.1051,-0.1104,-0.121,-0.1241,-0.1374,-0.1462,-0.1489,-0.155,-0.1564,-0.1554,-0.1532,-0.1501,-0.1407,-0.138,-0.137,-0.1361,-0.1459,-0.1458,-0.1457,-0.1457,0,-0.0614,-0.0665,-0.0703,-0.0771,-0.0853,-0.0904,-0.0958,-0.0984,-0.1039,-0.117,-0.1215,-0.1278,-0.1363,-0.1424,-0.1475,-0.1468,-0.1534,-0.1507,-0.1511,-0.1482,-0.1393,-0.1366,-0.136,-0.1449,-0.145,-0.1451,-0.1451,0,-0.0583,-0.0586,-0.0637,-0.0693,-0.0781,-0.0799,-0.0853,-0.0908,-0.0949,-0.108,-0.1079,-0.1217,-0.1331,-0.1371,-0.1388,-0.1415,-0.1385,-0.1333,-0.1346,-0.1355,-0.1322,-0.1192,-0.1198,0,0,0,0,0,-0.0533,-0.0506,-0.0544,-0.0604,-0.0682,-0.0725,-0.0806,-0.0853,-0.0955,-0.0968,-0.1017,-0.1097,-0.116,-0.1227,-0.1232,-0.1302,-0.1366,-0.1296,-0.1305,-0.1405,-0.1414,-0.1388,0,0,0,0,0,0,-0.0497,-0.0507,-0.0497,-0.0507,-0.0534,-0.0595,-0.0644,-0.0704,-0.0737,-0.0859,-0.0929,-0.1029,-0.1136,-0.1161,-0.1214,-0.123,-0.1211,-0.1383,-0.138,-0.14,-0.1408,-0.1415,-0.1392,0,0,0,0,0]},{"header":{"parameterUnit":"m.s-1","parameterCategory":2,"la1":30.2991,"la2":30.254,"lo1":-89.0895,"lo2":-89.0444,"dy":0.0017,"dx":0.0017,"nx":28,"ny":28,"refTime":"2024-05-30T09:00:00:Z","depth":"4","parameterNumber":3,"parameterNumberName":"V-component_of_CURRENTS"},"data":[0,0,0,0,0,0,0,0,0,0,0,0,0,0,0,0,0,0,0,0,0,0,0,0,0,0,0,0,0,0,0,0,0,0,0,0,0,0,0,0,0,0,0,0,0,0,0,0,0,0,0,0,0,0,0,0,0,0,-0.0065,-0.0065,0,-0.0084,-0.0084,-0.0084,-0.0033,-0.0031,-0.003,-0.0028,0.004,0.0041,0.0041,0,0,0,0,0,0,0,0,0,0,0,0,0,-0.0019,-0.002,-0.0065,-0.0065,-0.0066,-0.0084,-0.0084,-0.0084,-0.0033,-0.0031,-0.0029,-0.0028,0.004,0.0041,0.0041,0,0,0,0,0,0,0,0,0,0,0,0,0,-0.0037,-0.002,-0.0065,-0.0043,-0.0042,-0.0084,-0.0084,-0.0084,-0.0033,-0.0031,-0.0029,-0.0027,0.004,0.0041,0.0041,0.0002,0,0,0.0044,0.0044,0,0,0,0,0,0,0,0,-0.0036,-0.0039,-0.0046,-0.0045,-0.0043,-0.0055,-0.0043,-0.0052,-0.0034,-0.0035,-0.0028,-0.0026,0.0014,0.0017,0.0009,0.0005,0.0008,0.0044,0.0044,0.0044,0.0045,0,0,0,0,0,0,0,-0.0035,-0.0038,-0.0071,-0.0047,-0.0045,-0.0045,-0.0045,-0.0045,-0.002,-0.0035,-0.0031,-0.0037,0.0016,0.0009,0.0012,0.0009,0.0044,0.0044,0.0045,0.0045,0.0088,0.0088,0,0,0,0,0,0,-0.0037,-0.0037,-0.007,-0.0071,-0.0036,-0.0048,-0.0047,-0.0052,-0.0021,-0.0016,-0.0039,-0.0034,0.0006,0.0011,0.0014,0.0058,0.0044,0.0045,0.0045,0.0087,0.0088,0.0089,0,0,0,0,0,0,-0.0036,-0.004,-0.0069,-0.0056,-0.006,-0.0051,-0.0057,-0.0054,-0.0029,-0.0026,-0.0018,-0.0013,0.0008,0.0013,0.004,0.0058,0.0045,0.0046,0.0086,0.0087,0.0088,0.009,0,0,0,0,0,0,-0.0035,-0.0039,-0.004,-0.0056,-0.0061,-0.0084,-0.0059,-0.0056,-0.0039,-0.0032,-0.0002,0.0004,0.001,0.0039,0.0041,0.0059,0.0047,0.0085,0.0087,0.0088,0.0089,0.0091,0.0092,0,0,0,0,0,-0.0033,-0.0044,-0.004,-0.0044,-0.0063,-0.0084,-0.0086,-0.0072,-0.0039,-0.0038,-0.0007,0.0005,0.0049,0.0039,0.0041,0.0061,0.0085,0.0086,0.0088,0.0088,0.009,0.0092,0,0,0,0,0,0,-0.0024,-0.0041,-0.0036,-0.0051,-0.0062,-0.0076,-0.0076,-0.006,-0.0038,-0.0014,0.0003,0.0011,0.0042,0.0049,0.0038,0.0079,0.0073,0.0075,0.0072,0.0075,0.0076,0.0064,0.0047,0,0,0,0,0,-0.0026,-0.0029,-0.0052,-0.0057,-0.0066,-0.0064,-0.0067,-0.0053,-0.0041,-0.0027,-0.0005,0.0024,0.0041,0.0059,0.0069,0.0084,0.0084,0.0102,0.0104,0.0106,0.0098,0.0149,0.0155,0.0094,0.0094,0.0094,0,0,-0.0026,-0.0031,-0.0035,-0.0055,-0.0059,-0.0082,-0.0058,-0.0054,-0.0056,-0.0024,-0.0003,0.0028,0.0046,0.0066,0.0082,0.0081,0.0112,0.0108,0.0108,0.01,0.0152,0.0158,0.0163,0.0095,0.0095,0.0094,0,0,-0.0028,-0.0031,-0.0038,-0.0057,-0.0063,-0.007,-0.0063,-0.0062,-0.0043,-0.0032,0.0002,0.0048,0.0061,0.0087,0.0097,0.0115,0.0118,0.0127,0.0128,0.0179,0.0184,0.0189,0.0148,0.0149,0.0132,0.0132,0.0132,0,-0.0026,-0.0045,-0.0044,-0.0064,-0.0088,-0.0064,-0.0091,-0.008,-0.0061,-0.005,-0.002,0.0039,0.0068,0.0097,0.0111,0.012,0.0119,0.0117,0.0181,0.0186,0.0191,0.0148,0.015,0.0132,0.0132,0.0132,0.0132,0,-0.0047,-0.0064,-0.0072,-0.0093,-0.0114,-0.013,-0.0134,-0.012,-0.0087,-0.0072,-0.0021,0.0031,0.0068,0.0094,0.0106,0.0159,0.0133,0.0174,0.0173,0.0197,0.015,0.0152,0.0132,0.0132,0.0132,0.0132,0,0,-0.0059,-0.0082,-0.009,-0.0115,-0.0135,-0.0161,-0.0161,-0.017,-0.0167,-0.0102,-0.0085,-0.0014,0.0042,0.006,0.0109,0.0163,0.0192,0.0185,0.0188,0.0137,0.0239,0.025,0.0251,0.0257,0.0258,0.026,0.0173,0,-0.0083,-0.0128,-0.0135,-0.0188,-0.0224,-0.0222,-0.0242,-0.0234,-0.0205,-0.0177,-0.0082,-0.0042,0.0021,0.0059,0.0125,0.0182,0.0204,0.0207,0.0228,0.0227,0.0232,0.0259,0.0264,0.0174,0.0175,0.0175,0.0175,0,-0.0122,-0.0148,-0.0204,-0.0256,-0.0273,-0.03,-0.0335,-0.0333,-0.0287,-0.0257,-0.0174,-0.0105,-0.0013,0.0049,0.0149,0.0151,0.0186,0.0229,0.0228,0.0242,0.0244,0.0159,0.0178,0.0178,0.0177,0.0177,0.0177,0,-0.0158,-0.0209,-0.0255,-0.0278,-0.0325,-0.0347,-0.0359,-0.0352,-0.0361,-0.028,-0.0271,-0.015,-0.0088,0.0012,0.0118,0.0134,0.0212,0.0241,0.0262,0.0258,0.027,0.0266,0.0297,0.0297,0.0298,0.0298,0.0298,0,-0.02,-0.0241,-0.0277,-0.0309,-0.0379,-0.0385,-0.0429,-0.0423,-0.0404,-0.0401,-0.0293,-0.0258,-0.0082,-0.0008,0.0084,0.0175,0.0184,0.0253,0.0261,0.0263,0.0261,0.0267,0.0264,0.0294,0.0295,0.0296,0.0296,0,-0.0229,-0.0249,-0.0315,-0.0372,-0.0397,-0.0439,-0.0489,-0.0509,-0.0484,-0.0472,-0.0442,-0.0345,-0.0227,-0.0099,0.0046,0.0114,0.0211,0.0232,0.016,0.0165,0.0207,0.0206,0.0223,0.0223,0.0223,0.0223,0.0224,0,-0.0244,-0.0277,-0.0364,-0.0415,-0.0441,-0.0496,-0.0536,-0.0541,-0.0544,-0.0516,-0.0502,-0.0408,-0.0318,-0.0144,0.0008,0.0147,0.0189,0.0189,0.0265,0.0205,0.0211,0.0209,0.0208,0.0224,0.0224,0.0224,0.0224,0,-0.0276,-0.0304,-0.0356,-0.0456,-0.0519,-0.0582,-0.0615,-0.063,-0.0605,-0.0611,-0.0535,-0.0426,-0.0312,-0.0137,-0.0028,0.0085,0.0179,0.0191,0.0192,0.0264,0.0207,0.0211,0.021,0.0225,0.0224,0.0224,0.0224,0,-0.0297,-0.0343,-0.0408,-0.0493,-0.0582,-0.0626,-0.0645,-0.0634,-0.064,-0.059,-0.0564,-0.043,-0.0347,-0.0173,-0.0064,0.0051,0.0083,0.0113,0.0119,0.0119,0.0153,0.007,0.0049,0,0,0,0,0,-0.0311,-0.0355,-0.044,-0.0524,-0.0607,-0.0651,-0.0686,-0.068,-0.066,-0.061,-0.0583,-0.0461,-0.0279,-0.02,-0.0083,-0.0063,0.0095,0.0074,0.013,0.0228,0.0227,0.0292,0,0,0,0,0,0,-0.0324,-0.0395,-0.0433,-0.0525,-0.0583,-0.0657,-0.0681,-0.0665,-0.0619,-0.0587,-0.0481,-0.0446,-0.026,-0.034,-0.0083,-0.0051,-0.0004,0.0156,0.0158,0.0228,0.0227,0.0227,0.0294,0,0,0,0,0]}]]